Theta_e
340 338 338 339 342 347 345 343 340 336 334 337 335 336 337 336 337 336 337 334 334 331 330 329 330 335 327 328 326 325 326 323
339 337 337 338 342 345 342 340 339 343 338 336 336 335 336 334 335 335 335 331 332 332 329 330 329 327 327 326 324 326 325 323
342 340 339 340 342 340 339 343 342 343 341 339 338 336 335 335 334 333 331 330 332 331 331 329 328 327 326 325 324 324 323 322
343 341 339 341 342 338 341 342 346 345 343 341 338 337 336 335 333 332 331 330 332 330 330 329 327 328 327 325 324 323 321 320
342 342 341 341 339 338 339 338 339 343 342 338 335 334 332 331 330 332 330 332 332 332 329 328 328 328 328 327 324 323 320 320
339 336 338 335 334 331 332 331 334 334 335 335 334 330 330 331 329 329 330 330 331 331 328 327 328 326 324 322 321 318 318 318
340 336 334 335 335 331 330 332 328 329 329 333 336 334 331 330 328 326 328 328 327 329 327 327 328 324 323 321 319 319 316 315
338 336 335 333 332 333 328 328 328 329 335 330 328 327 328 331 331 328 328 328 327 327 325 327 325 323 320 320 319 316 315 314
333 330 330 331 330 330 326 330 330 330 328 326 326 325 325 329 329 330 328 327 325 325 322 324 323 320 320 320 316 314 312 314
325 327 328 328 328 327 328 326 327 326 326 327 327 327 327 327 329 327 327 326 324 322 323 320 321 317 319 316 315 311 311 315
323 324 325 325 325 327 328 327 326 326 325 326 329 329 328 326 326 326 326 325 324 324 322 319 319 318 313 315 315 315 311 312
324 324 324 324 325 327 329 328 325 326 329 329 325 324 323 323 324 328 324 326 325 323 320 318 318 316 316 314 315 316 314 310
316 317 317 317 319 318 316 316 316 318 321 319 317 315 320 323 323 324 325 326 322 318 318 317 319 315 318 316 317 316 313 311
311 312 313 314 317 317 316 314 318 320 321 321 323 323 321 318 318 316 315 316 317 319 316 319 319 317 317 316 318 316 314 314
308 309 310 311 312 316 317 316 317 319 319 319 319 319 319 318 317 315 316 314 318 320 319 319 317 317 317 318 318 317 315 313
308 310 311 313 315 316 314 315 314 316 316 317 318 318 316 315 318 314 314 313 315 321 319 319 318 317 316 319 316 317 316 314
309 312 312 312 313 314 313 313 314 316 315 316 316 317 317 316 318 319 314 318 316 317 317 317 317 317 318 318 317 316 315 314
310 311 312 313 314 314 315 315 314 314 315 315 314 316 316 317 318 316 318 318 318 317 317 317 316 317 317 317 317 315 314 312
310 310 313 312 311 312 314 313 312 312 312 313 313 314 315 314 315 316 316 318 318 316 316 316 315 315 317 316 315 314 312 312
310 310 309 312 311 310 310 310 309 310 311 312 312 314 314 315 315 315 317 316 317 316 317 316 315 314 315 314 312 312 311 311
Wind_Speed
16 16 16 15 14 11 17 10 7 12 12 8 6 4 4 4 1 6 4 5 6 6 5 4 7 2 9 11 12 11 15 13
16 16 15 16 16 14 16 12 9 5 8 6 4 4 3 5 7 5 2 4 6 6 6 9 8 8 11 12 10 13 15 17
16 15 16 16 16 15 15 12 7 6 2 7 3 4 1 7 2 5 6 7 6 8 6 7 8 9 11 11 12 12 15 17
18 17 15 16 18 14 15 13 9 7 7 6 4 5 2 3 3 7 9 8 7 8 9 8 8 9 11 11 12 12 13 15
19 21 8 12 17 17 13 12 10 7 8 6 8 6 5 5 8 6 5 7 8 9 10 9 8 9 12 11 12 13 14 15
22 18 28 19 15 10 5 6 11 8 10 6 7 3 4 2 3 4 11 9 10 9 10 10 10 10 11 12 13 13 14 14
22 21 14 19 15 9 7 13 11 10 7 6 3 5 6 8 6 5 5 6 11 8 9 10 10 11 11 11 11 14 13 13
17 18 17 17 12 12 10 9 10 3 6 4 1 2 0 4 3 6 8 7 9 8 8 9 8 8 10 9 10 11 12 10
15 14 12 12 11 12 11 9 7 4 2 2 2 2 4 4 2 9 5 6 6 8 9 9 9 9 11 9 10 11 9 10
12 13 12 10 11 12 10 7 4 3 2 2 2 3 6 6 10 6 4 4 6 8 9 8 10 11 9 8 8 9 9 7
8 10 10 11 11 10 8 6 4 4 2 1 3 6 7 8 8 4 2 5 8 4 5 8 9 8 6 7 6 9 9 10
9 10 9 10 12 11 7 6 7 6 6 5 6 5 8 5 7 5 4 6 7 9 3 7 6 6 5 6 7 7 8 10
14 12 11 10 10 7 6 7 8 6 7 5 3 5 7 8 5 5 5 10 9 6 2 5 6 6 6 6 8 8 7 7
12 11 9 9 7 4 3 4 1 3 4 4 7 8 8 9 9 9 9 7 7 5 2 4 6 6 7 8 6 6 7 7
9 8 7 4 3 5 4 4 3 5 7 8 10 9 9 11 9 8 8 7 3 3 5 5 7 7 8 8 6 5 7 6
6 4 6 6 3 4 10 12 12 8 9 9 8 7 7 7 5 6 8 7 6 4 4 6 8 6 7 7 7 4 6 4
7 5 8 7 7 6 7 7 9 10 10 8 8 6 6 7 6 5 6 6 5 7 8 9 9 6 8 7 6 5 7 3
7 6 10 9 9 9 11 10 11 11 9 6 7 5 4 5 5 7 8 8 9 9 9 10 9 8 6 6 6 5 5 6
13 12 10 9 8 10 12 12 12 9 8 8 7 5 6 7 8 9 10 11 10 10 10 10 9 6 5 5 6 7 7 6
10 8 6 9 13 12 11 11 10 8 8 7 8 6 9 11 10 10 10 10 11 10 9 7 5 4 4 6 6 6 6 9
Wind_Direction
179 182 180 173 175 149 129 150 150 149 143 164 161 153 154 143 66 352 66 341 13 354 5 0 360 311 354 340 335 347 343 333
192 189 181 168 166 143 125 155 155 50 120 206 125 176 176 224 72 327 28 323 10 350 10 332 350 357 345 350 338 340 333 326
197 194 184 174 151 140 133 124 119 117 169 72 321 13 12 31 245 74 4 333 15 341 340 327 336 353 351 341 330 336 322 325
197 198 194 171 124 135 112 99 89 105 66 40 36 32 13 286 340 32 342 344 8 336 319 340 344 4 346 326 327 324 324 322
210 189 136 101 105 94 111 116 117 92 82 61 37 14 337 14 13 25 355 352 343 336 326 334 352 348 324 319 328 327 329 325
29 39 82 81 96 108 100 115 93 99 76 49 63 33 339 327 304 335 1 352 336 334 334 340 2 327 318 332 338 328 321 321
68 90 102 118 115 93 101 93 93 72 66 82 46 36 360 15 351 346 345 329 324 346 326 330 346 318 336 335 325 323 324 323
67 70 85 97 103 107 98 90 89 77 100 68 48 254 199 203 269 328 314 344 339 355 323 336 330 330 329 330 321 327 321 304
71 85 99 98 103 117 114 100 54 52 57 16 340 343 347 308 323 280 354 318 328 325 318 333 339 338 321 327 332 325 316 318
90 99 98 109 126 131 118 114 127 104 91 147 150 308 298 321 300 287 291 302 323 302 343 333 327 310 330 348 330 315 309 316
111 123 134 121 135 134 130 87 44 39 37 10 297 296 285 258 250 232 315 307 295 352 333 311 327 309 348 324 306 322 314 320
111 126 112 87 52 33 37 1 2 2 326 337 335 297 297 326 303 290 303 289 282 269 317 330 319 314 306 331 308 321 315 313
58 56 56 53 58 49 45 28 12 357 3 2 359 303 266 277 321 319 286 282 282 303 339 307 292 296 310 294 313 330 318 319
64 56 50 50 50 68 140 173 90 279 271 277 271 294 313 306 315 307 289 324 299 104 263 272 292 279 300 310 314 307 319 323
80 89 87 86 330 291 263 340 341 332 342 332 325 315 312 292 300 308 337 297 18 91 292 296 289 301 294 294 297 312 326 347
117 162 187 184 212 353 5 3 349 333 334 330 318 319 306 302 21 340 302 315 311 10 260 277 284 269 280 297 294 337 326 341
116 87 53 31 360 14 351 337 334 337 340 317 318 335 320 323 304 300 299 293 308 293 303 289 291 280 292 296 307 309 303 5
83 66 28 357 353 358 359 343 342 326 328 346 320 291 272 269 270 285 286 297 294 296 295 286 289 304 314 310 312 291 300 321
28 14 4 346 333 341 346 342 332 354 348 340 303 312 302 312 318 311 319 313 299 296 290 301 307 321 303 300 298 278 292 301
5 346 317 327 3 345 326 6 350 326 308 281 280 335 337 321 322 325 324 316 315 309 307 303 305 293 308 305 330 324 303 301